Volver al catálogo

NOAA 16 DEB

LostSSO
NORAD 41222·DEBRIS·🇺🇸 United States

Lanzado Sep 21, 2000 desde Vandenberg Space Force Base

Loading…

Próximos Pases (próximas 24 horas)

TLE

ObsoletoSource: Space-Track

Época: Sep 30, 2022, 19:07 UTC

1 41222U 00055EB  22273.79659799  .00001936  00000-0  12726-2 0  9997
2 41222  98.7350 282.0034 0066802 184.1429 175.9193 14.01972889347889

Sigue NOAA 16 DEB en tiempo real con AllMySat

Download on the App Store